Year,Month,Day,Hour,Minute,Value (Times are PST for temperature in C)
2014,01,11,00,00,6.40
2014,01,11,00,01,6.40
2014,01,11,00,02,6.40
2014,01,11,00,03,6.40
2014,01,11,00,04,6.40
2014,01,11,00,05,6.40
2014,01,11,00,06,6.40
2014,01,11,00,07,6.40
2014,01,11,00,08,6.40
2014,01,11,00,09,6.40
2014,01,11,00,10,6.40
2014,01,11,00,11,6.40
2014,01,11,00,12,6.40
2014,01,11,00,13,6.40
2014,01,11,00,14,6.40
2014,01,11,00,15,6.40
2014,01,11,00,16,6.40
2014,01,11,00,17,6.40
2014,01,11,00,18,6.40
2014,01,11,00,19,6.50
2014,01,11,00,20,6.50
2014,01,11,00,21,6.50
2014,01,11,00,22,6.50
2014,01,11,00,23,6.50
2014,01,11,00,24,6.60
2014,01,11,00,25,6.60
2014,01,11,00,26,6.60
2014,01,11,00,27,6.60
2014,01,11,00,28,6.60
2014,01,11,00,29,6.50
2014,01,11,00,30,6.60
2014,01,11,00,31,6.50
2014,01,11,00,32,6.50
2014,01,11,00,33,6.50
2014,01,11,00,34,6.50
2014,01,11,00,35,6.50
2014,01,11,00,36,6.50
2014,01,11,00,37,6.50
2014,01,11,00,38,6.50
2014,01,11,00,39,6.50
2014,01,11,00,40,6.50
2014,01,11,00,41,6.50
2014,01,11,00,42,6.50
2014,01,11,00,43,6.50
2014,01,11,00,44,6.50
2014,01,11,00,45,6.60
2014,01,11,00,46,6.60
2014,01,11,00,47,6.60
2014,01,11,00,48,6.60
2014,01,11,00,49,6.60
2014,01,11,00,50,6.60
2014,01,11,00,51,6.60
2014,01,11,00,52,6.60
2014,01,11,00,53,6.60
2014,01,11,00,54,6.60
2014,01,11,00,55,6.60
2014,01,11,00,56,6.60
2014,01,11,00,57,6.60
2014,01,11,00,58,6.60
2014,01,11,00,59,6.60
2014,01,11,01,00,6.60
2014,01,11,01,01,6.60
2014,01,11,01,02,6.60
2014,01,11,01,03,6.60
2014,01,11,01,04,6.60
2014,01,11,01,05,6.60
2014,01,11,01,06,6.60
2014,01,11,01,07,6.60
2014,01,11,01,08,6.60
2014,01,11,01,09,6.60
2014,01,11,01,10,6.60
2014,01,11,01,11,6.60
2014,01,11,01,12,6.60
2014,01,11,01,13,6.60
2014,01,11,01,14,6.60
2014,01,11,01,15,6.60
2014,01,11,01,16,6.60
2014,01,11,01,17,6.60
2014,01,11,01,18,6.60
2014,01,11,01,19,6.60
2014,01,11,01,20,6.60
2014,01,11,01,21,6.60
2014,01,11,01,22,6.60
2014,01,11,01,23,6.60
2014,01,11,01,24,6.60
2014,01,11,01,25,6.60
2014,01,11,01,26,6.60
2014,01,11,01,27,6.60
2014,01,11,01,28,6.60
2014,01,11,01,29,6.60
2014,01,11,01,30,6.60
2014,01,11,01,31,6.60
2014,01,11,01,32,6.60
2014,01,11,01,33,6.60
2014,01,11,01,34,6.60
2014,01,11,01,35,6.60
2014,01,11,01,36,6.60
2014,01,11,01,37,6.70
2014,01,11,01,38,6.70
2014,01,11,01,39,6.70
2014,01,11,01,40,6.70
2014,01,11,01,41,6.70
2014,01,11,01,42,6.70
2014,01,11,01,43,6.70
2014,01,11,01,44,6.70
2014,01,11,01,45,6.70
2014,01,11,01,46,6.70
2014,01,11,01,47,6.70
2014,01,11,01,48,6.70
2014,01,11,01,49,6.70
2014,01,11,01,50,6.70
2014,01,11,01,51,6.70
2014,01,11,01,52,6.70
2014,01,11,01,53,6.70
2014,01,11,01,54,6.70
2014,01,11,01,55,6.70
2014,01,11,01,56,6.70
2014,01,11,01,57,6.70
2014,01,11,01,58,6.70
2014,01,11,01,59,6.70
2014,01,11,02,00,6.70
2014,01,11,02,01,6.70
2014,01,11,02,02,6.70
2014,01,11,02,03,6.70
2014,01,11,02,04,6.70
2014,01,11,02,05,6.70
2014,01,11,02,06,6.70
2014,01,11,02,07,6.70
2014,01,11,02,08,6.70
2014,01,11,02,09,6.70
2014,01,11,02,10,6.70
2014,01,11,02,11,6.70
2014,01,11,02,12,6.70
2014,01,11,02,13,6.70
2014,01,11,02,14,6.70
2014,01,11,02,15,6.70
2014,01,11,02,16,6.80
2014,01,11,02,17,6.80
2014,01,11,02,18,6.80
2014,01,11,02,19,6.80
2014,01,11,02,20,6.90
2014,01,11,02,21,7.00
2014,01,11,02,22,7.10
2014,01,11,02,23,7.10
2014,01,11,02,24,7.10
2014,01,11,02,25,7.10
2014,01,11,02,26,7.10
2014,01,11,02,27,7.10
2014,01,11,02,28,7.10
2014,01,11,02,29,7.10
2014,01,11,02,30,7.10
2014,01,11,02,31,7.10
2014,01,11,02,32,7.10
2014,01,11,02,33,7.10
2014,01,11,02,34,7.10
2014,01,11,02,35,7.10
2014,01,11,02,36,7.10
2014,01,11,02,37,7.10
2014,01,11,02,38,7.20
2014,01,11,02,39,7.20
2014,01,11,02,40,7.30
2014,01,11,02,41,7.30
2014,01,11,02,42,7.40
2014,01,11,02,43,7.40
2014,01,11,02,44,7.60
2014,01,11,02,45,8.00
2014,01,11,02,46,8.30
2014,01,11,02,47,8.60
2014,01,11,02,48,8.70
2014,01,11,02,49,8.90
2014,01,11,02,50,9.00
2014,01,11,02,51,9.00
2014,01,11,02,52,9.10
2014,01,11,02,53,9.10
2014,01,11,02,54,9.10
2014,01,11,02,55,9.10
2014,01,11,02,56,9.20
2014,01,11,02,57,9.20
2014,01,11,02,58,9.20
2014,01,11,02,59,9.20
2014,01,11,03,00,9.20
2014,01,11,03,01,9.10
2014,01,11,03,02,9.10
2014,01,11,03,03,9.10
2014,01,11,03,04,9.10
2014,01,11,03,05,9.10
2014,01,11,03,06,9.10
2014,01,11,03,07,9.10
2014,01,11,03,08,9.10
2014,01,11,03,09,9.10
2014,01,11,03,10,9.10
2014,01,11,03,11,9.10
2014,01,11,03,12,9.00
2014,01,11,03,13,8.90
2014,01,11,03,14,8.90
2014,01,11,03,15,8.90
2014,01,11,03,16,8.90
2014,01,11,03,17,8.80
2014,01,11,03,18,8.80
2014,01,11,03,19,8.80
2014,01,11,03,20,8.70
2014,01,11,03,21,8.70
2014,01,11,03,22,8.70
2014,01,11,03,23,8.70
2014,01,11,03,24,8.70
2014,01,11,03,25,8.70
2014,01,11,03,26,8.70
2014,01,11,03,27,8.60
2014,01,11,03,28,8.60
2014,01,11,03,29,8.60
2014,01,11,03,30,8.50
2014,01,11,03,31,8.50
2014,01,11,03,32,8.50
2014,01,11,03,33,8.40
2014,01,11,03,34,8.40
2014,01,11,03,35,8.40
2014,01,11,03,36,8.40
2014,01,11,03,37,8.30
2014,01,11,03,38,8.30
2014,01,11,03,39,8.30
2014,01,11,03,40,8.20
2014,01,11,03,41,8.20
2014,01,11,03,42,8.20
2014,01,11,03,43,8.10
2014,01,11,03,44,8.10
2014,01,11,03,45,8.00
2014,01,11,03,46,8.00
2014,01,11,03,47,8.00
2014,01,11,03,48,8.00
2014,01,11,03,49,7.90
2014,01,11,03,50,7.90
2014,01,11,03,51,7.90
2014,01,11,03,52,7.80
2014,01,11,03,53,7.80
2014,01,11,03,54,7.80
2014,01,11,03,55,7.80
2014,01,11,03,56,7.80
2014,01,11,03,57,7.80
2014,01,11,03,58,7.80
2014,01,11,03,59,7.70
2014,01,11,04,00,7.70
2014,01,11,04,01,7.70
2014,01,11,04,02,7.70
2014,01,11,04,03,7.60
2014,01,11,04,04,7.60
2014,01,11,04,05,7.60
2014,01,11,04,06,7.60
2014,01,11,04,07,7.50
2014,01,11,04,08,7.50
2014,01,11,04,09,7.50
2014,01,11,04,10,7.40
2014,01,11,04,11,7.40
2014,01,11,04,12,7.40
2014,01,11,04,13,7.30
2014,01,11,04,14,7.30
2014,01,11,04,15,7.40
2014,01,11,04,16,7.40
2014,01,11,04,17,7.40
2014,01,11,04,18,7.40
2014,01,11,04,19,7.30
2014,01,11,04,20,7.40
2014,01,11,04,21,7.40
2014,01,11,04,22,7.30
2014,01,11,04,23,7.30
2014,01,11,04,24,7.30
2014,01,11,04,25,7.30
2014,01,11,04,26,7.30
2014,01,11,04,27,7.20
2014,01,11,04,28,7.20
2014,01,11,04,29,7.20
2014,01,11,04,30,7.20
2014,01,11,04,31,7.20
2014,01,11,04,32,7.20
2014,01,11,04,33,7.20
2014,01,11,04,34,7.20
2014,01,11,04,35,7.20
2014,01,11,04,36,7.20
2014,01,11,04,37,7.20
2014,01,11,04,38,7.10
2014,01,11,04,39,7.20
2014,01,11,04,40,7.20
2014,01,11,04,41,7.20
2014,01,11,04,42,7.20
2014,01,11,04,43,7.20
2014,01,11,04,44,7.20
2014,01,11,04,45,7.20
2014,01,11,04,46,7.20
2014,01,11,04,47,7.20
2014,01,11,04,48,7.10
2014,01,11,04,49,7.10
2014,01,11,04,50,7.10
2014,01,11,04,51,7.10
2014,01,11,04,52,7.10
2014,01,11,04,53,7.10
2014,01,11,04,54,7.10
2014,01,11,04,55,7.10
2014,01,11,04,56,7.10
2014,01,11,04,57,7.20
2014,01,11,04,58,7.20
2014,01,11,04,59,7.20
2014,01,11,05,00,7.20
2014,01,11,05,01,7.20
2014,01,11,05,02,7.20
2014,01,11,05,03,7.20
2014,01,11,05,04,7.20
2014,01,11,05,05,7.20
2014,01,11,05,06,7.10
2014,01,11,05,07,7.10
2014,01,11,05,08,7.10
2014,01,11,05,09,7.10
2014,01,11,05,10,7.10
2014,01,11,05,11,7.10
2014,01,11,05,12,7.20
2014,01,11,05,13,7.20
2014,01,11,05,14,7.20
2014,01,11,05,15,7.20
2014,01,11,05,16,7.20
2014,01,11,05,17,7.30
2014,01,11,05,18,7.30
2014,01,11,05,19,7.30
2014,01,11,05,20,7.30
2014,01,11,05,21,7.30
2014,01,11,05,22,7.30
2014,01,11,05,23,7.30
2014,01,11,05,24,7.30
2014,01,11,05,25,7.30
2014,01,11,05,26,7.30
2014,01,11,05,27,7.20
2014,01,11,05,28,7.20
2014,01,11,05,29,7.20
2014,01,11,05,30,7.20
2014,01,11,05,31,7.20
2014,01,11,05,32,7.20
2014,01,11,05,33,7.20
2014,01,11,05,34,7.20
2014,01,11,05,35,7.20
2014,01,11,05,36,7.20
2014,01,11,05,37,7.20
2014,01,11,05,38,7.20
2014,01,11,05,39,7.20
2014,01,11,05,40,7.20
2014,01,11,05,41,7.20
2014,01,11,05,42,7.20
2014,01,11,05,43,7.30
2014,01,11,05,44,7.30
2014,01,11,05,45,7.30
2014,01,11,05,46,7.30
2014,01,11,05,47,7.30
2014,01,11,05,48,7.40
2014,01,11,05,49,7.30
2014,01,11,05,50,7.40
2014,01,11,05,51,7.30
2014,01,11,05,52,7.30
2014,01,11,05,53,7.30
2014,01,11,05,54,7.30
2014,01,11,05,55,7.30
2014,01,11,05,56,7.40
2014,01,11,05,57,7.50
2014,01,11,05,58,7.60
2014,01,11,05,59,7.70
2014,01,11,06,00,7.80
2014,01,11,06,01,7.90
2014,01,11,06,02,8.00
2014,01,11,06,03,8.10
2014,01,11,06,04,8.10
2014,01,11,06,05,8.10
2014,01,11,06,06,8.10
2014,01,11,06,07,8.10
2014,01,11,06,08,8.10
2014,01,11,06,09,8.00
2014,01,11,06,10,8.00
2014,01,11,06,11,8.00
2014,01,11,06,12,8.00
2014,01,11,06,13,8.00
2014,01,11,06,14,8.00
2014,01,11,06,15,8.00
2014,01,11,06,16,7.90
2014,01,11,06,17,7.90
2014,01,11,06,18,8.00
2014,01,11,06,19,8.00
2014,01,11,06,20,8.10
2014,01,11,06,21,8.10
2014,01,11,06,22,8.10
2014,01,11,06,23,8.10
2014,01,11,06,24,8.10
2014,01,11,06,25,8.10
2014,01,11,06,26,8.10
2014,01,11,06,27,8.10
2014,01,11,06,28,8.10
2014,01,11,06,29,8.00
2014,01,11,06,30,8.00
2014,01,11,06,31,8.00
2014,01,11,06,32,8.00
2014,01,11,06,33,8.00
2014,01,11,06,34,8.10
2014,01,11,06,35,8.00
2014,01,11,06,36,8.00
2014,01,11,06,37,8.00
2014,01,11,06,38,7.90
2014,01,11,06,39,7.90
2014,01,11,06,40,7.80
2014,01,11,06,41,7.80
2014,01,11,06,42,7.80
2014,01,11,06,43,7.80
2014,01,11,06,44,7.70
2014,01,11,06,45,7.80
2014,01,11,06,46,7.80
2014,01,11,06,47,7.70
2014,01,11,06,48,7.70
2014,01,11,06,49,7.70
2014,01,11,06,50,7.70
2014,01,11,06,51,7.60
2014,01,11,06,52,7.60
2014,01,11,06,53,7.60
2014,01,11,06,54,7.50
2014,01,11,06,55,7.50
2014,01,11,06,56,7.40
2014,01,11,06,57,7.40
2014,01,11,06,58,7.30
2014,01,11,06,59,7.30
2014,01,11,07,00,7.30
2014,01,11,07,01,7.20
2014,01,11,07,02,7.20
2014,01,11,07,03,7.20
2014,01,11,07,04,7.10
2014,01,11,07,05,7.10
2014,01,11,07,06,7.10
2014,01,11,07,07,7.10
2014,01,11,07,08,7.10
2014,01,11,07,09,7.00
2014,01,11,07,10,7.00
2014,01,11,07,11,7.00
2014,01,11,07,12,7.00
2014,01,11,07,13,7.10
2014,01,11,07,14,7.10
2014,01,11,07,15,7.10
2014,01,11,07,16,7.10
2014,01,11,07,17,7.10
2014,01,11,07,18,7.10
2014,01,11,07,19,7.10
2014,01,11,07,20,7.20
2014,01,11,07,21,7.20
2014,01,11,07,22,7.20
2014,01,11,07,23,7.20
2014,01,11,07,24,7.20
2014,01,11,07,25,7.20
2014,01,11,07,26,7.20
2014,01,11,07,27,7.20
2014,01,11,07,28,7.20
2014,01,11,07,29,7.20
2014,01,11,07,30,7.20
2014,01,11,07,31,7.20
2014,01,11,07,32,7.20
2014,01,11,07,33,7.30
2014,01,11,07,34,7.30
2014,01,11,07,35,7.30
2014,01,11,07,36,7.30
2014,01,11,07,37,7.30
2014,01,11,07,38,7.30
2014,01,11,07,39,7.40
2014,01,11,07,40,7.40
2014,01,11,07,41,7.40
2014,01,11,07,42,7.40
2014,01,11,07,43,7.40
2014,01,11,07,44,7.40
2014,01,11,07,45,7.40
2014,01,11,07,46,7.40
2014,01,11,07,47,7.50
2014,01,11,07,48,7.50
2014,01,11,07,49,7.50
2014,01,11,07,50,7.50
2014,01,11,07,51,7.50
2014,01,11,07,52,7.50
2014,01,11,07,53,7.50
2014,01,11,07,54,7.50
2014,01,11,07,55,7.50
2014,01,11,07,56,7.50
2014,01,11,07,57,7.50
2014,01,11,07,58,7.60
2014,01,11,07,59,7.50
2014,01,11,08,00,7.60
2014,01,11,08,01,7.50
2014,01,11,08,02,7.50
2014,01,11,08,03,7.50
2014,01,11,08,04,7.50
2014,01,11,08,05,7.50
2014,01,11,08,06,7.60
2014,01,11,08,07,7.60
2014,01,11,08,08,7.60
2014,01,11,08,09,7.60
2014,01,11,08,10,7.60
2014,01,11,08,11,7.60
2014,01,11,08,12,7.60
2014,01,11,08,13,7.60
2014,01,11,08,14,7.60
2014,01,11,08,15,7.60
2014,01,11,08,16,7.60
2014,01,11,08,17,7.60
2014,01,11,08,18,7.60
2014,01,11,08,19,7.60
2014,01,11,08,20,7.60
2014,01,11,08,21,7.60
2014,01,11,08,22,7.60
2014,01,11,08,23,7.60
2014,01,11,08,24,7.70
2014,01,11,08,25,7.70
2014,01,11,08,26,7.70
2014,01,11,08,27,7.70
2014,01,11,08,28,7.70
2014,01,11,08,29,7.70
2014,01,11,08,30,7.70
2014,01,11,08,31,7.70
2014,01,11,08,32,7.70
2014,01,11,08,33,7.70
2014,01,11,08,34,7.70
2014,01,11,08,35,7.70
2014,01,11,08,36,7.70
2014,01,11,08,37,7.70
2014,01,11,08,38,7.70
2014,01,11,08,39,7.70
2014,01,11,08,40,7.70
2014,01,11,08,41,7.80
2014,01,11,08,42,7.80
2014,01,11,08,43,7.80
2014,01,11,08,44,7.80
2014,01,11,08,45,7.70
2014,01,11,08,46,7.70
2014,01,11,08,47,7.70
2014,01,11,08,48,7.70
2014,01,11,08,49,7.60
2014,01,11,08,50,7.60
2014,01,11,08,51,7.60
2014,01,11,08,52,7.60
2014,01,11,08,53,7.60
2014,01,11,08,54,7.60
2014,01,11,08,55,7.60
2014,01,11,08,56,7.50
2014,01,11,08,57,7.50
2014,01,11,08,58,7.50
2014,01,11,08,59,7.50
2014,01,11,09,00,7.40
2014,01,11,09,01,7.40
2014,01,11,09,02,7.40
2014,01,11,09,03,7.40
2014,01,11,09,04,7.30
2014,01,11,09,05,7.30
2014,01,11,09,06,7.30
2014,01,11,09,07,7.30
2014,01,11,09,08,7.30
2014,01,11,09,09,7.30
2014,01,11,09,10,7.30
2014,01,11,09,11,7.30
2014,01,11,09,12,7.20
2014,01,11,09,13,7.20
2014,01,11,09,14,7.20
2014,01,11,09,15,7.30
2014,01,11,09,16,7.30
2014,01,11,09,17,7.30
2014,01,11,09,18,7.30
2014,01,11,09,19,7.30
2014,01,11,09,20,7.30
2014,01,11,09,21,7.20
2014,01,11,09,22,7.20
2014,01,11,09,23,7.20
2014,01,11,09,24,7.10
2014,01,11,09,25,7.10
2014,01,11,09,26,7.10
2014,01,11,09,27,7.00
2014,01,11,09,28,7.00
2014,01,11,09,29,7.00
2014,01,11,09,30,6.90
2014,01,11,09,31,6.90
2014,01,11,09,32,6.90
2014,01,11,09,33,6.80
2014,01,11,09,34,6.80
2014,01,11,09,35,6.80
2014,01,11,09,36,6.70
2014,01,11,09,37,6.70
2014,01,11,09,38,6.70
2014,01,11,09,39,6.70
2014,01,11,09,40,6.60
2014,01,11,09,41,6.60
2014,01,11,09,42,6.60
2014,01,11,09,43,6.50
2014,01,11,09,44,6.50
2014,01,11,09,45,6.50
2014,01,11,09,46,6.40
2014,01,11,09,47,6.40
2014,01,11,09,48,6.40
2014,01,11,09,49,6.40
2014,01,11,09,50,6.30
2014,01,11,09,51,6.30
2014,01,11,09,52,6.30
2014,01,11,09,53,6.30
2014,01,11,09,54,6.30
2014,01,11,09,55,6.30
2014,01,11,09,56,6.30
2014,01,11,09,57,6.20
2014,01,11,09,58,6.20
2014,01,11,09,59,6.20
2014,01,11,10,00,6.20
2014,01,11,10,01,6.20
2014,01,11,10,02,6.20
2014,01,11,10,03,6.20
2014,01,11,10,04,6.20
2014,01,11,10,05,6.20
2014,01,11,10,06,6.10
2014,01,11,10,07,6.10
2014,01,11,10,08,6.10
2014,01,11,10,09,6.10
2014,01,11,10,10,6.10
2014,01,11,10,11,6.10
2014,01,11,10,12,6.10
2014,01,11,10,13,6.10
2014,01,11,10,14,6.10
2014,01,11,10,15,6.10
2014,01,11,10,16,6.10
2014,01,11,10,17,6.10
2014,01,11,10,18,6.00
2014,01,11,10,19,6.00
2014,01,11,10,20,6.00
2014,01,11,10,21,6.00
2014,01,11,10,22,6.00
2014,01,11,10,23,6.00
2014,01,11,10,24,6.10
2014,01,11,10,25,6.10
2014,01,11,10,26,6.10
2014,01,11,10,27,6.10
2014,01,11,10,28,6.10
2014,01,11,10,29,6.10
2014,01,11,10,30,6.10
2014,01,11,10,31,6.00
2014,01,11,10,32,6.10
2014,01,11,10,33,6.10
2014,01,11,10,34,6.00
2014,01,11,10,35,6.00
2014,01,11,10,36,6.00
2014,01,11,10,37,6.00
2014,01,11,10,38,6.00
2014,01,11,10,39,6.00
2014,01,11,10,40,6.00
2014,01,11,10,41,6.00
2014,01,11,10,42,6.00
2014,01,11,10,43,6.00
2014,01,11,10,44,6.10
2014,01,11,10,45,6.10
2014,01,11,10,46,6.10
2014,01,11,10,47,6.10
2014,01,11,10,48,6.00
2014,01,11,10,49,6.00
2014,01,11,10,50,6.00
2014,01,11,10,51,6.00
2014,01,11,10,52,6.00
2014,01,11,10,53,6.00
2014,01,11,10,54,6.00
2014,01,11,10,55,6.00
2014,01,11,10,56,6.00
2014,01,11,10,57,6.00
2014,01,11,10,58,6.10
2014,01,11,10,59,6.10
2014,01,11,11,00,6.10
2014,01,11,11,01,6.10
2014,01,11,11,02,6.10
2014,01,11,11,03,6.20
2014,01,11,11,04,6.20
2014,01,11,11,05,6.20
2014,01,11,11,06,6.20
2014,01,11,11,07,6.20
2014,01,11,11,08,6.20
2014,01,11,11,09,6.20
2014,01,11,11,10,6.20
2014,01,11,11,11,6.30
2014,01,11,11,12,6.30
2014,01,11,11,13,6.20
2014,01,11,11,14,6.20
2014,01,11,11,15,6.20
2014,01,11,11,16,6.20
2014,01,11,11,17,6.20
2014,01,11,11,18,6.20
2014,01,11,11,19,6.20
2014,01,11,11,20,6.30
2014,01,11,11,21,6.30
2014,01,11,11,22,6.30
2014,01,11,11,23,6.30
2014,01,11,11,24,6.30
2014,01,11,11,25,6.30
2014,01,11,11,26,6.30
2014,01,11,11,27,6.30
2014,01,11,11,28,6.30
2014,01,11,11,29,6.30
2014,01,11,11,30,6.30
2014,01,11,11,31,6.40
2014,01,11,11,32,6.40
2014,01,11,11,33,6.40
2014,01,11,11,34,6.40
2014,01,11,11,35,6.40
2014,01,11,11,36,6.40
2014,01,11,11,37,6.40
2014,01,11,11,38,6.50
2014,01,11,11,39,6.60
2014,01,11,11,40,6.60
2014,01,11,11,41,6.60
2014,01,11,11,42,6.60
2014,01,11,11,43,6.60
2014,01,11,11,44,6.60
2014,01,11,11,45,6.60
2014,01,11,11,46,6.60
2014,01,11,11,47,6.70
2014,01,11,11,48,6.70
2014,01,11,11,49,6.70
2014,01,11,11,50,6.70
2014,01,11,11,51,6.70
2014,01,11,11,52,6.70
2014,01,11,11,53,6.70
2014,01,11,11,54,6.80
2014,01,11,11,55,6.80
2014,01,11,11,56,6.80
2014,01,11,11,57,6.70
2014,01,11,11,58,6.70
2014,01,11,11,59,6.80
2014,01,11,12,00,6.80
2014,01,11,12,01,6.80
2014,01,11,12,02,6.80
2014,01,11,12,03,6.80
2014,01,11,12,04,6.80
2014,01,11,12,05,6.80
2014,01,11,12,06,6.80
2014,01,11,12,07,6.80
2014,01,11,12,08,6.80
2014,01,11,12,09,6.80
2014,01,11,12,10,6.80
2014,01,11,12,11,6.80
2014,01,11,12,12,6.80
2014,01,11,12,13,6.80
2014,01,11,12,14,6.80
2014,01,11,12,15,6.80
2014,01,11,12,16,6.80
2014,01,11,12,17,6.80
2014,01,11,12,18,6.80
2014,01,11,12,19,6.80
2014,01,11,12,20,6.80
2014,01,11,12,21,6.80
2014,01,11,12,22,6.80
2014,01,11,12,23,6.80
2014,01,11,12,24,6.80
2014,01,11,12,25,6.80
2014,01,11,12,26,6.80
2014,01,11,12,27,6.80
2014,01,11,12,28,6.80
2014,01,11,12,29,6.80
2014,01,11,12,30,6.80
2014,01,11,12,31,6.80
2014,01,11,12,32,6.80
2014,01,11,12,33,6.80
2014,01,11,12,34,6.80
2014,01,11,12,35,6.80
2014,01,11,12,36,6.80
2014,01,11,12,37,6.80
2014,01,11,12,38,6.80
2014,01,11,12,39,6.80
2014,01,11,12,40,6.80
2014,01,11,12,41,6.80
2014,01,11,12,42,6.80
2014,01,11,12,43,6.80
2014,01,11,12,44,6.80
2014,01,11,12,45,6.80
2014,01,11,12,46,6.80
2014,01,11,12,47,6.80
2014,01,11,12,48,6.70
2014,01,11,12,49,6.70
2014,01,11,12,50,6.70
2014,01,11,12,51,6.70
2014,01,11,12,52,6.70
2014,01,11,12,53,6.70
2014,01,11,12,54,6.70
2014,01,11,12,55,6.70
2014,01,11,12,56,6.70
2014,01,11,12,57,6.70
2014,01,11,12,58,6.70
2014,01,11,12,59,6.70
2014,01,11,13,00,6.70
2014,01,11,13,01,6.60
2014,01,11,13,02,6.70
2014,01,11,13,03,6.70
2014,01,11,13,04,6.70
2014,01,11,13,05,6.70
2014,01,11,13,06,6.70
2014,01,11,13,07,6.70
2014,01,11,13,08,6.70
2014,01,11,13,09,6.70
2014,01,11,13,10,6.60
2014,01,11,13,11,6.60
2014,01,11,13,12,6.60
2014,01,11,13,13,6.60
2014,01,11,13,14,6.60
2014,01,11,13,15,6.60
2014,01,11,13,16,6.60
2014,01,11,13,17,6.60
2014,01,11,13,18,6.60
2014,01,11,13,19,6.70
2014,01,11,13,20,6.70
2014,01,11,13,21,6.70
2014,01,11,13,22,6.60
2014,01,11,13,23,6.60
2014,01,11,13,24,6.60
2014,01,11,13,25,6.60
2014,01,11,13,26,6.60
2014,01,11,13,27,6.60
2014,01,11,13,28,6.60
2014,01,11,13,29,6.60
2014,01,11,13,30,6.60
2014,01,11,13,31,6.60
2014,01,11,13,32,6.60
2014,01,11,13,33,6.60
2014,01,11,13,34,6.60
2014,01,11,13,35,6.60
2014,01,11,13,36,6.60
2014,01,11,13,37,6.60
2014,01,11,13,38,6.60
2014,01,11,13,39,6.60
2014,01,11,13,40,6.60
2014,01,11,13,41,6.60
2014,01,11,13,42,6.60
2014,01,11,13,43,6.60
2014,01,11,13,44,6.50
2014,01,11,13,45,6.50
2014,01,11,13,46,6.50
2014,01,11,13,47,6.50
2014,01,11,13,48,6.50
2014,01,11,13,49,6.50
2014,01,11,13,50,6.50
2014,01,11,13,51,6.50
2014,01,11,13,52,6.50
2014,01,11,13,53,6.50
2014,01,11,13,54,6.50
2014,01,11,13,55,6.50
2014,01,11,13,56,6.50
2014,01,11,13,57,6.50
2014,01,11,13,58,6.50
2014,01,11,13,59,6.40
2014,01,11,14,00,6.40
2014,01,11,14,01,6.40
2014,01,11,14,02,6.40
2014,01,11,14,03,6.50
2014,01,11,14,04,6.50
2014,01,11,14,05,6.50
2014,01,11,14,06,6.60
2014,01,11,14,07,6.60
2014,01,11,14,08,6.60
2014,01,11,14,09,6.70
2014,01,11,14,10,6.70
2014,01,11,14,11,6.70
2014,01,11,14,12,6.60
2014,01,11,14,13,6.60
2014,01,11,14,14,6.60
2014,01,11,14,15,6.60
2014,01,11,14,16,6.60
2014,01,11,14,17,6.60
2014,01,11,14,18,6.60
2014,01,11,14,19,6.60
2014,01,11,14,20,6.60
2014,01,11,14,21,6.60
2014,01,11,14,22,6.70
2014,01,11,14,23,6.70
2014,01,11,14,24,6.70
2014,01,11,14,25,6.70
2014,01,11,14,26,6.70
2014,01,11,14,27,6.70
2014,01,11,14,28,6.70
2014,01,11,14,29,6.80
2014,01,11,14,30,6.80
2014,01,11,14,31,6.80
2014,01,11,14,32,6.70
2014,01,11,14,33,6.70
2014,01,11,14,34,6.70
2014,01,11,14,35,6.70
2014,01,11,14,36,6.70
2014,01,11,14,37,6.70
2014,01,11,14,38,6.70
2014,01,11,14,39,6.70
2014,01,11,14,40,6.70
2014,01,11,14,41,6.70
2014,01,11,14,42,6.80
2014,01,11,14,43,6.80
2014,01,11,14,44,6.80
2014,01,11,14,45,6.80
2014,01,11,14,46,6.80
2014,01,11,14,47,6.80
2014,01,11,14,48,6.80
2014,01,11,14,49,6.80
2014,01,11,14,50,6.80
2014,01,11,14,51,6.80
2014,01,11,14,52,6.80
2014,01,11,14,53,6.80
2014,01,11,14,54,6.80
2014,01,11,14,55,6.80
2014,01,11,14,56,6.80
2014,01,11,14,57,6.80
2014,01,11,14,58,6.80
2014,01,11,14,59,6.90
2014,01,11,15,00,6.90
2014,01,11,15,01,6.90
2014,01,11,15,02,6.90
2014,01,11,15,03,6.90
2014,01,11,15,04,6.90
2014,01,11,15,05,6.90
2014,01,11,15,06,6.90
2014,01,11,15,07,6.90
2014,01,11,15,08,6.90
2014,01,11,15,09,6.90
2014,01,11,15,10,6.90
2014,01,11,15,11,6.90
2014,01,11,15,12,6.90
2014,01,11,15,13,6.80
2014,01,11,15,14,6.90
2014,01,11,15,15,6.90
2014,01,11,15,16,6.90
2014,01,11,15,17,6.90
2014,01,11,15,18,6.90
2014,01,11,15,19,6.90
2014,01,11,15,20,6.80
2014,01,11,15,21,6.80
2014,01,11,15,22,6.80
2014,01,11,15,23,6.80
2014,01,11,15,24,6.70
2014,01,11,15,25,6.60
2014,01,11,15,26,6.50
2014,01,11,15,27,6.40
2014,01,11,15,28,6.40
2014,01,11,15,29,6.30
2014,01,11,15,30,6.30
2014,01,11,15,31,6.30
2014,01,11,15,32,6.40
2014,01,11,15,33,6.40
2014,01,11,15,34,6.40
2014,01,11,15,35,6.50
2014,01,11,15,36,6.50
2014,01,11,15,37,6.60
2014,01,11,15,38,6.60
2014,01,11,15,39,6.60
2014,01,11,15,40,6.60
2014,01,11,15,41,6.60
2014,01,11,15,42,6.60
2014,01,11,15,43,6.60
2014,01,11,15,44,6.60
2014,01,11,15,45,6.70
2014,01,11,15,46,6.70
2014,01,11,15,47,6.70
2014,01,11,15,48,6.80
2014,01,11,15,49,6.80
2014,01,11,15,50,6.90
2014,01,11,15,51,6.90
2014,01,11,15,52,6.90
2014,01,11,15,53,6.90
2014,01,11,15,54,6.90
2014,01,11,15,55,6.90
2014,01,11,15,56,7.00
2014,01,11,15,57,7.00
2014,01,11,15,58,7.00
2014,01,11,15,59,7.00
2014,01,11,16,00,7.00
2014,01,11,16,01,7.00
2014,01,11,16,02,7.00
2014,01,11,16,03,7.00
2014,01,11,16,04,7.00
2014,01,11,16,05,7.10
2014,01,11,16,06,7.10
2014,01,11,16,07,7.10
2014,01,11,16,08,7.10
2014,01,11,16,09,7.10
2014,01,11,16,10,7.10
2014,01,11,16,11,7.10
2014,01,11,16,12,7.10
2014,01,11,16,13,7.10
2014,01,11,16,14,7.00
2014,01,11,16,15,7.00
2014,01,11,16,16,7.00
2014,01,11,16,17,7.00
2014,01,11,16,18,6.90
2014,01,11,16,19,6.90
2014,01,11,16,20,7.00
2014,01,11,16,21,7.00
2014,01,11,16,22,7.00
2014,01,11,16,23,7.00
2014,01,11,16,24,6.90
2014,01,11,16,25,6.90
2014,01,11,16,26,6.90
2014,01,11,16,27,6.90
2014,01,11,16,28,6.90
2014,01,11,16,29,6.90
2014,01,11,16,30,6.80
2014,01,11,16,31,6.80
2014,01,11,16,32,6.80
2014,01,11,16,33,6.90
2014,01,11,16,34,6.90
2014,01,11,16,35,6.90
2014,01,11,16,36,6.90
2014,01,11,16,37,6.80
2014,01,11,16,38,6.80
2014,01,11,16,39,6.80
2014,01,11,16,40,6.80
2014,01,11,16,41,6.80
2014,01,11,16,42,6.80
2014,01,11,16,43,6.80
2014,01,11,16,44,6.80
2014,01,11,16,45,6.80
2014,01,11,16,46,6.70
2014,01,11,16,47,6.70
2014,01,11,16,48,6.70
2014,01,11,16,49,6.70
2014,01,11,16,50,6.70
2014,01,11,16,51,6.70
2014,01,11,16,52,6.70
2014,01,11,16,53,6.70
2014,01,11,16,54,6.70
2014,01,11,16,55,6.70
2014,01,11,16,56,6.70
2014,01,11,16,57,6.70
2014,01,11,16,58,6.70
2014,01,11,16,59,6.70
2014,01,11,17,00,6.70
2014,01,11,17,01,6.70
2014,01,11,17,02,6.70
2014,01,11,17,03,6.80
2014,01,11,17,04,6.80
2014,01,11,17,05,6.80
2014,01,11,17,06,6.80
2014,01,11,17,07,6.90
2014,01,11,17,08,6.90
2014,01,11,17,09,6.90
2014,01,11,17,10,6.90
2014,01,11,17,11,6.90
2014,01,11,17,12,6.90
2014,01,11,17,13,6.90
2014,01,11,17,14,6.90
2014,01,11,17,15,6.90
2014,01,11,17,16,6.90
2014,01,11,17,17,6.90
2014,01,11,17,18,6.90
2014,01,11,17,19,6.90
2014,01,11,17,20,7.00
2014,01,11,17,21,7.00
2014,01,11,17,22,7.00
2014,01,11,17,23,7.00
2014,01,11,17,24,7.00
2014,01,11,17,25,7.00
2014,01,11,17,26,6.90
2014,01,11,17,27,7.00
2014,01,11,17,28,7.00
2014,01,11,17,29,7.00
2014,01,11,17,30,6.90
2014,01,11,17,31,6.90
2014,01,11,17,32,6.90
2014,01,11,17,33,7.00
2014,01,11,17,34,7.00
2014,01,11,17,35,7.10
2014,01,11,17,36,7.10
2014,01,11,17,37,7.10
2014,01,11,17,38,7.10
2014,01,11,17,39,7.10
2014,01,11,17,40,7.10
2014,01,11,17,41,7.10
2014,01,11,17,42,7.10
2014,01,11,17,43,7.10
2014,01,11,17,44,7.10
2014,01,11,17,45,7.10
2014,01,11,17,46,7.10
2014,01,11,17,47,7.10
2014,01,11,17,48,7.10
2014,01,11,17,49,7.10
2014,01,11,17,50,7.10
2014,01,11,17,51,7.10
2014,01,11,17,52,7.20
2014,01,11,17,53,7.20
2014,01,11,17,54,7.20
2014,01,11,17,55,7.20
2014,01,11,17,56,7.20
2014,01,11,17,57,7.20
2014,01,11,17,58,7.30
2014,01,11,17,59,7.30
2014,01,11,18,00,7.30
2014,01,11,18,01,7.20
2014,01,11,18,02,7.20
2014,01,11,18,03,7.20
2014,01,11,18,04,7.20
2014,01,11,18,05,7.20
2014,01,11,18,06,7.20